sat.trackr.live / text

‹ back to catalog

STARLINK-6202

NORAD 56896 · 2023-083W

PAYLOAD ACTIVE UNKNOWN

§ Identity

Operator
Country
US
Launch date
2023-06-12
Launch site
AFETR
Launch vehicle
Mass (kg)
RCS (m²)

Purposes: comms

External: N2YO · Heavens-Above · Gunter

§ Orbital elements

Epoch: 2026-05-25T00:58:09.350400Z

Period
94.27 min
Inclination
43.0058°
Eccentricity
0.0001688
Mean motion
15.27584520 rev/d
Perigee alt
481.9 km
Apogee alt
484.2 km
Semi-major
6,861.2 km
B*
5.5824e-5
RAAN
17.7243°
Arg perigee
273.6964°
Mean anomaly
86.3694°
Rev number
16,337

§ Raw data

STARLINK-62021 56896U 23083W   26145.04038600  .00001274  00000+0  55824-4 0  99902 56896  43.0058  17.7243 0001688 273.6964  86.3694 15.27584520163375

JSON: /api/v1/satellites/56896 · /tle

For live sub-satellite position, see the globe view (requires WebGL).

§ Visibility from observer

Set your observer location to see the next 7 days of passes ≥ 10°. The values pass through the URL so the page stays shareable.

No JS? Fill the form by hand. The geolocation button needs JavaScript.